星链-31800 (STARLINK-31800 )

导读

STARLINK-31800是美国SpaceX星链互联网星座中的卫星,于2024年5月3日发射入轨,属于星链低轨卫星通信网络扩容的组成部分。该卫星延续星链设计,旨在为全球偏远、欠发达地区及海上、航空等场景提供高速低延迟互联网接入服务,支撑星座全球覆盖的服务能力建设。

基本信息
目录编号:
59643
目录名称:
STARLINK-31800
国际标识:
2024-082N
轨道中心:
EARTH
卫星名称:
星链-31800
卫星全名:
星链-31800 (STARLINK-31800 )
卫星状态:
在轨 (已飞行776 天)
发射日期:
2024-05-03 UTC
国别 :
美国 (US)
星等 :
--
轨道信息
数据来源 国际轨道数据
星历时间: 2026-06-18T03:45:25+0800
6小时前
查看轨道信息
半长轴: 6861.19km
偏心率: 0.0001369
轨道倾角: 43.001°
近地点辐角 260.173°
升交点赤经 294.499°
平近点角 99.896°
近地点: 482.113km
远地点: 483.993km
周期: 94.267分钟
每日圈数: 15.275787
详细信息
固有亮度:
5
最大亮度:
1.5
卫星平台:
Starlink v2.0 mini
覆盖范围:
全球
运营商:
太空探索技术公司
运营商所在国:
美国
制造商(研发单位):
太空探索技术公司
制造商所在国:
美国
使用方式:
暂无
卫星简介
星链(Starlink)计划是由太空探索技术公司(SpaceX)提出的一个巨型低轨卫星互联网星座项目,计划在2019年至2024年间在太空搭建由约1.2万颗卫星组成的“星链”网络,其中1584颗将部署在地球上空550千米处的近地轨道,并从2020年开始工作。该卫星仍在工作。
2D轨道图
3D轨道图
轨道高度分析图
轨道倾角分析图
轨道综合分析图
查看轨道综合分析图